Date,TemperatureHighF,TemperatureAvgF,TemperatureLowF,DewpointHighF,DewpointAvgF,DewpointLowF,HumidityHigh,HumidityAvg,HumidityLow,PressureMaxIn,PressureMinIn,WindSpeedMaxMPH,WindSpeedAvgMPH,GustSpeedMaxMPH,PrecipitationSumIn
2013-1-9,52.4,48.4,42.0,42.8,37.8,33.6,96,68,56,30.38,30.28,19,6,20,0.06
2013-1-10,51.5,45.6,41.1,50.3,43.0,33.5,100,91,57,30.29,29.81,25,6,27,0.36
2013-1-11,62.7,52.7,45.2,46.0,44.0,40.8,93,74,49,29.85,29.71,26,7,26,0.01
2013-1-12,53.1,39.4,25.7,47.2,33.1,22.5,93,79,52,29.99,29.78,21,6,23,0.11
2013-1-13,25.7,19.6,14.3,23.3,15.8,10.7,92,85,79,30.41,29.94,16,4,17,0.00
2013-1-14,26.7,19.0,13.5,17.4,12.4,7.7,87,75,58,30.55,30.40,11,2,12,0.01
2013-1-15,29.7,22.7,17.0,22.2,14.7,7.7,90,72,45,30.41,30.21,13,3,13,0.00
2013-1-16,37.4,25.6,14.8,23.5,17.5,11.7,90,73,48,30.23,30.12,16,2,16,0.01
2013-1-17,41.0,31.4,23.3,27.6,23.8,18.6,90,74,50,30.51,30.20,19,4,21,0.00
2013-1-18,54.4,37.6,21.7,28.3,24.3,18.8,91,63,28,30.53,30.19,18,4,19,0.00
2013-1-19,58.7,47.0,37.2,37.7,31.9,25.1,73,57,40,30.20,30.03,23,7,25,0.00
2013-1-20,49.2,38.2,26.1,33.3,21.5,12.9,87,54,28,30.31,30.16,16,4,17,0.00
2013-1-21,29.0,23.4,19.5,15.3,12.1,7.7,76,62,49,30.41,30.29,17,4,20,0.00
2013-1-22,32.0,24.6,19.5,18.7,13.9,10.2,77,64,52,30.42,30.28,14,3,14,0.00
2013-1-23,53.9,35.4,21.4,40.0,26.5,16.2,89,71,55,30.32,30.16,14,4,16,0.00
2013-1-24,34.4,27.9,23.0,23.1,13.8,8.7,66,55,46,30.42,30.18,23,9,23,0.00
2013-1-25,44.1,33.4,25.3,27.3,24.2,16.8,91,71,48,30.29,30.15,15,3,15,0.00
2013-1-26,53.8,41.3,28.8,27.3,24.3,19.8,85,55,29,30.32,30.16,20,5,22,0.00
2013-1-27,53.2,45.6,39.6,50.5,40.3,25.0,92,82,48,30.17,29.90,23,10,24,0.02
2013-1-28,69.2,62.9,52.3,59.5,56.6,50.1,93,80,63,29.94,29.77,29,8,33,0.00
2013-1-29,65.0,57.7,45.5,59.5,54.1,43.8,96,88,77,29.78,29.40,37,6,38,1.25
2013-1-30,46.0,30.7,22.9,44.6,26.4,17.8,96,84,74,30.05,29.39,31,11,33,0.47
2013-1-31,33.9,22.7,11.6,23.6,16.0,1.4,92,76,60,30.48,30.02,24,5,27,0.01
2013-2-1,32.0,19.6,8.5,14.8,7.2,1.0,79,59,42,30.53,30.24,21,4,21,0.00
2013-2-2,47.1,35.2,24.7,34.8,25.3,14.2,85,67,56,30.26,30.15,21,4,22,0.01
2013-2-3,47.2,40.2,34.4,30.0,24.7,16.9,78,55,35,30.28,29.97,23,5,24,0.00
2013-2-4,56.2,45.6,33.0,38.5,32.5,24.0,84,61,44,29.97,29.81,21,5,22,0.02
2013-2-5,57.2,41.9,27.0,36.3,29.9,24.6,94,66,36,30.08,29.92,19,3,21,0.00
2013-2-6,53.9,43.3,31.5,38.6,32.3,26.7,85,66,46,30.15,29.98,21,8,22,0.00
2013-2-7,49.0,45.0,38.9,47.3,41.1,36.3,95,86,74,30.09,29.86,20,6,21,0.20
2013-2-8,44.1,35.3,29.7,36.3,29.0,25.1,92,78,57,30.32,30.08,21,6,22,0.00
2013-2-9,36.4,33.4,30.4,33.7,29.0,25.0,92,84,69,30.27,29.90,24,11,25,0.12
2013-2-10,54.9,46.4,36.0,47.9,35.3,25.3,96,70,34,30.00,29.64,35,12,35,0.20
2013-2-11,47.5,36.9,29.2,27.6,24.9,20.9,80,63,41,30.18,30.00,15,3,15,0.00
2013-2-12,42.4,33.6,25.1,33.7,27.0,21.8,94,78,55,30.17,29.94,16,2,16,0.01
2013-2-13,45.4,36.0,30.0,34.2,30.2,27.6,96,80,60,29.99,29.91,16,4,17,0.10
2013-2-14,50.1,42.1,34.9,32.6,28.7,24.1,71,59,44,30.14,29.93,17,5,17,0.00
2013-2-15,41.4,32.1,23.2,30.1,17.7,6.7,83,57,33,30.31,30.14,17,6,21,0.00
2013-2-16,34.9,27.8,23.0,21.7,17.6,11.5,87,67,47,30.35,30.16,14,3,14,0.00
2013-2-17,60.1,44.1,30.1,32.1,25.2,18.9,67,49,32,30.16,29.83,20,6,21,0.00
2013-2-18,52.4,45.3,29.7,45.8,36.8,22.3,89,72,58,30.08,29.54,32,9,39,0.05
2013-2-19,38.2,30.0,24.0,22.8,15.1,7.9,76,55,34,30.33,30.08,23,5,25,0.00
2013-2-20,33.7,27.3,22.7,14.4,9.6,4.5,55,47,39,30.35,30.16,18,5,19,0.00
2013-2-21,31.3,27.6,23.1,29.6,23.3,13.1,95,84,52,30.17,29.74,23,8,27,0.00
2013-2-22,32.1,24.6,19.8,30.0,19.9,15.0,95,82,68,30.14,29.85,20,4,20,0.08
2013-2-23,36.9,25.5,17.6,23.2,18.3,14.7,91,75,51,30.14,30.01,13,2,13,0.26
2013-2-24,50.6,36.9,21.9,33.5,26.6,18.6,89,67,49,30.07,29.91,20,6,20,0.22
2013-2-25,40.7,36.5,33.2,33.3,28.0,21.5,91,72,48,29.94,29.41,40,10,40,0.53
2013-2-26,33.9,30.5,26.8,30.8,28.6,24.7,95,93,88,29.85,29.35,24,8,24,0.17
2013-2-27,32.9,29.9,26.5,28.7,26.1,21.8,91,86,79,30.05,29.81,23,9,25,0.05
2013-2-28,31.1,28.5,25.3,26.5,23.7,20.3,86,82,76,30.20,30.04,20,7,23,0.00
2013-3-1,29.0,26.1,22.4,25.1,22.4,17.5,90,86,80,30.27,30.17,18,6,18,0.00
2013-3-2,30.6,24.5,19.6,22.7,18.2,12.5,89,77,62,30.36,30.24,21,5,21,0.01
2013-3-3,50.7,35.7,18.9,29.0,22.9,15.9,90,63,38,30.25,29.85,21,7,22,0.01
2013-3-4,60.9,46.4,36.6,46.6,35.5,26.6,87,66,48,29.85,29.61,25,9,25,0.00
2013-3-5,39.9,33.5,27.7,32.9,24.0,14.8,92,69,54,30.30,29.80,36,12,38,0.04
2013-3-6,41.8,31.7,24.9,25.0,19.9,15.9,73,62,45,30.43,30.29,20,5,23,0.00
2013-3-7,56.7,42.6,30.8,31.7,26.3,22.2,75,55,29,30.32,30.16,17,7,18,0.00
2013-3-8,53.6,44.7,35.8,37.4,32.5,29.8,82,63,47,30.28,30.06,21,9,23,0.00
2013-3-9,64.9,53.7,42.4,54.6,43.9,34.7,94,71,42,30.07,29.68,28,10,31,0.87
2013-3-10,55.4,44.7,29.8,53.7,42.5,27.3,96,92,76,29.88,29.60,24,7,27,0.93
2013-3-11,41.6,30.5,23.9,27.9,23.9,19.4,92,77,52,30.05,29.84,21,8,23,0.00
2013-3-12,49.6,37.5,26.1,30.5,23.4,18.6,83,58,38,30.32,30.04,24,5,27,0.00
2013-3-13,46.4,33.7,26.6,25.6,21.7,17.2,78,62,42,30.48,30.32,15,3,16,0.00
2013-3-14,70.3,51.7,29.1,42.9,33.3,22.6,79,52,35,30.39,30.09,28,6,33,0.00
2013-3-15,76.8,61.3,44.7,47.0,43.6,37.4,78,55,31,30.09,29.71,26,6,26,0.00
2013-3-16,64.8,54.3,41.3,46.8,41.8,35.4,80,63,51,29.90,29.69,24,8,25,0.00
2013-3-17,41.2,37.5,33.7,39.5,35.4,31.6,95,92,81,29.98,29.70,23,8,24,1.39
2013-3-18,52.7,41.1,34.0,40.9,34.0,26.9,96,78,43,30.05,29.70,24,6,25,0.00
2013-3-19,45.8,36.6,28.8,30.7,22.9,7.8,84,60,31,30.26,30.04,20,2,20,0.00
2013-3-20,40.5,33.0,28.3,30.9,18.0,3.5,91,58,27,30.36,30.15,28,6,30,0.00
2013-3-21,30.8,28.3,24.4,28.5,19.4,8.4,94,71,41,30.15,29.91,18,5,19,0.00
2013-3-22,37.3,31.4,28.2,34.0,29.3,26.4,94,92,86,29.99,29.90,15,5,16,0.46
2013-3-23,39.6,35.4,32.5,38.1,33.3,29.3,96,92,83,29.99,29.73,16,5,16,0.30
2013-3-24,39.2,31.1,25.0,38.1,28.9,20.1,96,91,77,30.09,29.59,31,9,36,0.29
2013-3-25,30.8,25.3,21.2,23.2,20.0,17.4,92,80,71,30.34,30.07,28,9,29,0.00
2013-3-26,39.7,28.6,22.6,26.1,22.0,16.9,92,77,56,30.44,30.34,13,3,15,0.00
2013-3-27,52.7,36.9,22.8,30.4,24.4,19.8,89,63,41,30.38,30.20,17,5,20,0.00
2013-3-28,67.5,52.9,43.1,48.1,38.0,29.8,69,57,47,30.25,30.09,16,5,17,0.00
2013-3-29,65.7,54.7,48.9,51.9,47.2,40.9,96,77,54,30.16,30.08,16,3,16,0.20
2013-3-30,64.8,53.2,44.9,55.7,48.2,42.6,93,83,65,30.11,29.80,23,5,27,0.28
2013-3-31,64.3,53.4,45.2,48.4,42.6,31.5,96,70,37,29.97,29.83,19,4,22,0.17
2013-4-1,49.5,43.8,39.1,40.0,33.3,25.9,88,67,50,30.22,29.93,19,5,19,0.00
2013-4-2,40.4,35.7,30.4,31.2,28.1,24.4,86,74,60,30.30,30.18,17,4,17,0.19
2013-4-3,52.8,41.6,31.8,30.2,23.3,17.6,81,51,31,30.32,30.18,25,6,27,0.00
2013-4-4,55.3,45.6,41.2,34.6,28.2,21.8,74,52,36,30.18,30.05,14,3,14,0.00
2013-4-5,69.0,50.1,31.2,40.5,33.4,26.9,92,56,33,30.19,29.97,11,2,13,0.00
2013-4-6,72.0,59.2,49.9,49.1,41.6,34.5,61,53,40,29.97,29.74,26,8,29,0.00
2013-4-7,74.5,63.0,54.4,55.8,51.7,46.0,86,67,46,29.88,29.69,19,5,23,0.00
2013-4-8,69.5,63.2,57.7,59.7,55.7,52.8,85,77,66,29.75,29.66,21,7,22,0.00
2013-4-9,76.6,66.0,60.8,63.6,57.5,55.1,84,74,58,29.77,29.67,23,8,23,0.00
2013-4-10,67.9,47.8,36.9,60.6,44.8,35.0,95,90,71,29.81,29.61,23,6,23,1.12
2013-4-11,47.6,37.2,31.2,35.2,31.0,26.1,95,79,57,29.83,29.74,24,8,24,0.00
2013-4-12,34.9,34.0,33.6,30.1,29.5,29.1,84,83,82,29.81,29.80,5,1,5,0.00
2013-4-15,79.3,62.5,49.9,64.4,55.1,47.6,92,77,58,29.84,29.66,17,5,18,0.00
2013-4-16,60.4,50.0,43.8,53.8,46.9,42.1,95,89,78,30.01,29.83,17,7,19,0.01
2013-4-17,80.8,66.4,47.7,66.8,59.1,45.5,97,79,61,29.99,29.58,28,8,28,0.00
2013-4-18,72.0,49.0,34.8,64.5,44.6,27.6,97,85,71,29.92,29.49,28,9,32,1.53
2013-4-19,51.7,39.9,32.9,31.9,26.3,19.6,74,59,39,30.11,29.91,27,9,30,0.00
2013-4-20,63.9,48.3,32.7,39.0,33.3,29.3,89,59,35,30.24,30.10,11,2,11,0.00
2013-4-21,65.6,55.2,47.6,41.7,38.9,34.3,77,56,37,30.28,30.12,22,7,23,0.00
2013-4-22,65.3,55.7,44.9,44.4,39.2,32.5,77,55,35,30.19,29.89,21,6,23,0.00
2013-4-23,58.6,45.4,34.5,50.6,41.1,32.6,95,86,60,30.09,29.83,19,6,22,0.30
2013-4-24,51.7,40.4,33.4,32.9,29.3,24.1,93,67,42,30.32,30.08,19,5,19,0.01
2013-4-25,67.4,49.0,30.7,37.4,31.9,27.5,92,57,27,30.38,30.22,22,2,23,0.00
2013-4-26,57.2,47.3,41.2,46.1,41.4,36.1,95,82,47,30.32,30.15,25,8,26,1.64
2013-4-27,53.2,48.0,44.9,51.5,46.4,43.5,99,94,91,30.17,29.98,21,5,22,0.21
2013-4-28,71.0,55.3,47.8,52.8,47.1,43.6,95,76,46,30.03,29.85,15,3,15,0.00
2013-4-29,82.8,65.8,49.9,60.1,53.4,47.8,94,67,38,29.89,29.71,20,4,20,0.00
2013-4-30,81.0,69.1,57.2,57.9,51.7,44.4,89,57,31,29.84,29.74,19,5,22,0.00
2013-5-1,80.2,67.3,57.7,63.8,56.5,48.0,89,69,50,30.01,29.83,23,5,25,0.00
2013-5-2,61.7,46.3,33.1,58.5,42.9,31.1,94,88,81,30.21,30.00,24,6,24,0.13
2013-5-3,35.8,31.4,28.2,33.9,29.9,26.6,100,94,92,30.20,29.93,23,6,23,0.59
2013-5-4,44.6,36.2,31.0,36.8,32.3,28.8,96,86,70,30.02,29.86,12,2,12,0.27
2013-5-5,57.3,46.6,39.7,49.9,41.7,36.4,93,83,71,30.08,29.99,21,6,23,0.00
2013-5-6,65.0,54.0,49.0,55.5,49.5,46.6,96,85,69,30.05,29.97,18,6,20,0.00
2013-5-7,74.5,61.1,48.4,54.0,50.0,44.9,96,70,43,30.06,29.95,13,2,13,0.00
2013-5-8,74.6,61.0,50.8,61.5,53.5,48.3,92,77,61,30.04,29.88,13,2,15,0.03
2013-5-9,73.3,62.8,55.3,62.8,56.5,53.0,95,81,61,29.94,29.83,22,6,24,0.92
2013-5-10,63.2,58.0,49.7,58.6,53.7,47.1,95,86,72,30.03,29.83,20,4,21,0.00
2013-5-11,66.8,56.2,45.8,51.7,43.1,31.0,96,66,29,30.18,30.02,23,5,23,0.01
2013-5-12,64.7,51.5,36.4,42.2,33.6,23.3,89,54,27,30.27,30.14,16,2,17,0.00
2013-5-13,78.4,60.6,44.7,56.9,46.7,37.6,90,63,41,30.19,29.99,17,3,17,0.00
2013-5-14,85.2,71.5,59.0,57.8,52.4,49.6,77,53,32,30.00,29.88,25,6,26,0.00
2013-5-15,74.9,67.8,60.4,66.7,59.8,51.0,96,76,59,29.92,29.83,21,4,23,0.37
2013-5-16,63.8,60.6,57.5,61.5,58.6,54.3,96,93,85,29.87,29.81,14,4,15,0.10
2013-5-17,78.3,66.0,59.2,64.1,59.9,56.6,97,82,58,29.91,29.83,8,1,9,0.00
2013-5-18,81.8,70.4,62.5,73.8,65.8,59.8,96,86,72,29.90,29.76,18,6,20,0.00
2013-5-19,85.1,74.4,68.1,69.2,66.5,61.3,96,78,48,29.80,29.58,25,7,26,0.10
2013-5-20,74.0,66.8,61.2,69.9,62.7,57.0,96,87,71,29.79,29.63,42,5,42,0.74
2013-5-21,66.1,61.2,58.0,60.8,57.4,54.1,94,87,76,29.82,29.55,21,4,23,0.00
2013-5-22,70.3,61.2,53.5,57.4,54.2,50.6,96,78,61,29.91,29.72,20,5,22,0.00
2013-5-23,70.8,61.3,53.4,57.9,53.1,49.0,94,75,59,30.15,29.90,16,4,17,0.00
2013-5-24,73.4,60.8,51.0,52.4,48.2,43.0,92,66,41,30.29,30.15,20,6,20,0.00
2013-5-25,80.1,65.2,54.2,65.6,54.5,44.6,81,68,59,30.23,30.02,15,5,16,0.00
2013-5-26,82.5,71.0,61.0,66.4,62.1,58.0,91,74,54,30.09,29.92,17,5,18,0.00
2013-5-27,80.4,71.9,64.5,68.6,64.2,60.3,91,77,63,29.94,29.72,23,6,23,0.00
2013-5-28,82.0,72.2,66.3,68.6,64.3,60.6,86,76,60,29.83,29.69,24,6,25,0.04
2013-5-29,80.3,72.0,66.3,67.6,63.6,60.5,88,75,63,29.85,29.70,22,7,24,0.00
2013-5-30,75.3,67.9,60.8,65.0,62.3,58.3,97,83,59,29.83,29.67,29,7,29,2.25
2013-5-31,82.4,70.7,62.7,73.1,66.2,60.3,95,86,71,29.78,29.62,31,6,34,0.27
2013-6-1,73.3,65.4,59.6,63.7,59.9,55.1,96,83,61,29.93,29.63,22,4,22,0.83
2013-6-2,60.6,57.5,52.9,56.2,52.9,48.1,94,85,77,30.03,29.92,12,2,13,0.00
2013-6-3,75.7,60.3,45.7,58.8,52.1,44.3,97,76,50,30.05,29.89,17,2,17,0.00
2013-6-4,73.4,64.2,58.8,64.8,58.2,54.6,89,81,68,29.98,29.88,17,5,17,0.00
2013-6-5,71.3,63.7,58.9,65.9,60.1,56.9,94,88,74,29.97,29.80,23,3,24,0.05
2013-6-6,70.2,62.1,55.7,60.9,57.4,54.5,97,85,69,29.90,29.85,9,1,15,0.01
2013-6-7,73.5,62.8,55.0,56.6,53.3,47.9,92,73,49,29.94,29.87,14,2,15,0.00
2013-6-8,79.2,64.7,49.5,59.6,54.0,47.8,95,71,46,29.93,29.81,13,2,13,0.00
2013-6-9,78.8,66.4,56.6,62.3,58.2,54.3,94,76,53,29.88,29.77,16,3,18,0.25
2013-6-10,87.6,72.9,60.9,74.1,63.7,55.8,87,73,58,29.86,29.77,17,3,17,0.00
2013-6-11,91.0,78.6,67.5,70.5,66.4,60.1,90,68,41,29.93,29.83,18,3,21,0.00
2013-6-12,88.2,80.5,71.6,72.3,68.7,65.5,85,68,53,29.89,29.79,30,5,30,0.00
2013-6-13,83.9,75.1,68.5,70.5,64.6,59.3,84,70,57,29.96,29.83,18,4,18,0.00
2013-6-14,87.2,74.0,63.5,73.3,65.7,61.3,93,76,60,29.99,29.87,14,3,16,0.00
2013-6-15,73.1,68.4,61.3,68.5,64.4,57.4,96,87,73,30.01,29.87,30,4,31,2.86
2013-6-16,85.0,73.0,64.5,75.2,67.6,61.6,96,84,63,29.95,29.84,25,2,26,0.84
2013-6-17,72.2,66.9,63.8,68.7,64.0,60.8,95,90,84,29.94,29.79,22,2,22,0.14
2013-6-18,83.3,69.4,58.9,67.5,61.7,57.2,96,78,52,29.99,29.89,20,1,22,0.01
2013-6-19,84.9,72.9,60.6,69.6,63.2,58.8,95,73,49,30.01,29.92,10,1,11,0.00
2013-6-20,86.8,75.4,65.2,71.8,66.2,62.3,91,74,55,30.03,29.92,17,4,17,0.00
2013-6-21,88.1,78.7,70.6,74.8,70.0,66.5,89,75,58,30.01,29.92,18,4,18,0.00
2013-6-22,86.3,78.2,71.6,74.2,70.4,67.4,93,77,58,30.01,29.87,15,4,16,0.00
2013-6-23,88.8,78.0,69.8,73.0,69.2,66.3,92,75,55,29.94,29.83,15,4,16,0.00
2013-6-24,89.1,78.7,70.9,74.1,69.0,66.2,89,73,53,29.99,29.86,17,3,17,0.00
2013-6-25,86.8,78.0,71.0,71.5,68.0,62.9,87,72,53,29.91,29.75,19,3,20,0.00
2013-6-26,91.4,80.3,72.4,77.0,71.0,66.7,88,74,59,29.83,29.75,21,5,24,0.00
2013-6-27,93.8,82.5,72.9,81.0,74.3,69.7,94,77,56,29.89,29.76,14,2,14,0.00
2013-6-28,81.7,74.4,67.2,75.0,67.1,59.3,95,79,48,29.86,29.74,47,3,59,0.76
2013-7-1,77.7,70.5,63.5,60.3,54.8,46.8,88,58,45,29.99,29.95,18,4,19,0.00
2013-7-2,78.2,66.4,57.9,55.4,52.6,46.5,82,63,43,30.04,29.96,19,2,21,0.00
2013-7-3,82.2,66.5,54.7,61.0,55.3,50.6,93,70,41,30.07,29.96,16,1,16,0.20
2013-7-4,81.5,68.9,57.5,63.1,57.6,51.3,92,70,38,30.03,29.94,15,1,17,0.00
2013-7-5,86.0,72.1,59.0,63.4,59.3,54.0,91,66,39,30.00,29.89,11,2,11,0.00
2013-7-6,88.5,75.3,64.7,67.1,62.5,56.6,89,66,42,29.98,29.87,11,2,11,0.00
2013-7-7,91.1,77.8,67.6,68.7,64.3,59.8,86,65,39,29.99,29.91,13,2,13,0.00
2013-7-8,91.7,78.9,69.8,72.2,67.2,62.8,85,68,50,30.04,29.95,10,2,11,0.00
2013-7-9,92.8,80.8,71.8,73.3,68.8,65.8,86,68,47,30.01,29.87,15,3,17,0.00
2013-7-10,92.7,81.2,70.8,75.5,70.3,64.4,93,71,44,29.95,29.84,14,2,14,0.12
2013-7-11,88.3,78.8,71.2,72.5,66.0,58.1,90,67,39,29.96,29.88,13,3,14,0.00
2013-7-12,88.7,74.3,65.0,62.0,58.5,54.1,81,60,35,30.02,29.93,18,4,20,0.00
2013-7-13,83.5,71.9,61.2,63.3,58.2,52.6,81,63,40,30.02,29.89,12,2,13,0.00
2013-7-14,86.8,73.4,61.3,62.9,59.0,54.9,89,63,38,30.03,29.94,17,3,18,0.00
2013-7-15,86.3,74.4,67.9,70.7,65.9,60.2,94,76,50,30.13,30.03,16,4,17,0.27
2013-7-16,86.0,74.3,68.2,73.5,69.1,65.2,97,85,52,30.22,30.12,12,1,12,0.17
2013-7-17,91.6,79.1,69.3,72.5,69.0,65.6,94,73,50,30.27,30.12,9,1,9,0.00
2013-7-18,94.5,81.1,70.7,73.0,67.3,61.2,86,65,44,30.15,29.95,10,1,10,0.00
2013-7-19,91.2,77.9,69.8,71.9,67.7,65.0,89,72,44,29.97,29.85,14,2,15,0.00
2013-7-20,84.7,74.3,68.3,70.9,67.3,58.9,95,79,54,29.92,29.78,16,2,18,0.13
2013-7-21,78.6,72.1,67.9,73.7,68.5,64.2,96,89,72,29.89,29.79,13,0,13,0.23
2013-7-22,82.7,74.5,65.2,72.2,67.1,60.6,95,79,54,29.89,29.77,22,3,22,0.19
2013-7-23,92.3,79.4,70.5,77.6,70.3,63.1,90,74,56,29.83,29.71,23,5,24,0.00
2013-7-24,85.0,74.6,70.0,69.1,65.6,60.2,92,75,52,29.97,29.80,15,2,15,0.00
2013-7-25,84.9,72.5,61.0,66.9,61.4,57.3,93,69,47,30.05,29.97,9,1,10,0.00
2013-7-26,71.0,66.6,61.2,67.1,63.6,59.1,96,90,74,30.00,29.94,12,1,12,1.12
2013-7-27,75.0,66.7,62.0,63.8,59.2,51.3,97,78,55,30.03,29.93,11,1,11,0.00
2013-7-28,70.5,64.8,60.3,63.7,59.7,55.1,92,84,72,30.03,29.95,8,0,9,0.00
2013-7-29,81.1,70.6,63.9,72.9,66.0,61.3,94,86,73,30.06,29.95,14,4,16,0.14
2013-7-30,81.6,71.6,65.7,76.0,69.7,63.3,97,94,82,30.02,29.92,21,2,21,2.70
2013-7-31,84.3,75.1,70.9,72.5,69.7,65.8,98,84,63,30.02,29.94,16,2,16,0.00
2013-8-1,86.3,73.7,64.3,68.2,64.3,59.3,96,74,50,30.06,29.93,11,2,12,0.00
2013-8-2,86.3,74.2,68.0,77.1,68.6,62.3,90,83,70,29.94,29.82,15,3,15,0.00
2013-8-3,85.4,74.8,65.8,74.2,69.3,64.3,97,84,60,30.03,29.80,19,2,32,1.17
2013-8-4,73.3,69.8,64.5,71.4,68.3,63.3,97,95,91,30.10,29.99,26,2,26,0.98
2013-8-5,85.9,73.9,68.9,79.3,70.8,67.5,96,90,78,30.00,29.77,16,3,16,0.14
2013-8-6,80.8,72.5,67.9,76.9,70.0,64.7,97,92,85,29.88,29.76,19,4,21,0.55
2013-8-7,83.3,73.7,66.0,74.3,70.4,64.7,97,90,72,29.91,29.75,28,2,30,0.38
2013-8-8,81.0,73.6,67.5,73.6,69.4,65.0,97,87,66,29.93,29.80,11,2,12,0.62
2013-8-9,79.5,72.6,69.9,72.2,68.3,63.2,96,87,71,30.00,29.87,12,2,13,0.05
2013-8-10,82.2,72.3,67.3,67.7,65.4,62.4,94,80,57,30.09,30.00,17,3,17,0.00
2013-8-11,82.5,72.9,67.6,75.2,68.4,65.0,94,86,76,30.06,29.97,13,2,15,0.00
2013-8-12,81.8,72.1,64.8,71.8,68.7,63.1,98,90,69,30.01,29.90,22,1,22,0.50
2013-8-13,78.0,71.3,66.9,68.6,64.1,58.7,96,79,58,30.03,29.93,15,3,16,0.00
2013-8-14,75.0,67.5,59.9,60.8,55.5,50.4,88,66,48,30.13,30.02,14,3,15,0.00
2013-8-15,73.8,63.2,53.5,57.8,53.5,49.1,93,72,51,30.11,30.00,12,2,12,0.00
2013-8-16,70.5,63.4,57.6,59.6,55.5,52.4,89,76,59,30.10,30.02,12,1,12,0.00
2013-8-17,78.2,65.2,54.8,62.8,57.1,52.8,95,76,54,30.13,30.03,13,2,13,0.00
2013-8-18,81.5,69.4,59.3,66.6,60.9,55.7,95,76,54,30.11,30.01,12,1,12,0.00
2013-8-19,83.7,70.5,60.7,67.2,62.6,58.1,96,78,50,30.08,29.97,8,0,9,0.00
2013-8-20,84.6,71.8,62.2,68.5,63.8,60.0,96,77,52,30.06,29.98,9,1,10,0.00
2013-8-21,87.0,73.6,63.1,73.2,65.6,60.8,94,77,54,30.08,29.98,11,1,11,0.00
2013-8-22,87.5,75.6,66.6,72.6,67.0,61.7,95,76,50,30.07,29.96,9,1,10,0.00
2013-8-23,88.3,76.2,66.4,73.1,68.2,64.6,95,78,54,30.04,29.95,9,1,9,0.00
2013-8-24,87.4,76.6,69.5,71.9,68.6,66.5,94,77,56,30.11,30.00,12,3,13,0.00
2013-8-25,89.3,76.7,67.8,72.6,68.3,62.8,95,77,50,30.17,30.08,9,1,11,0.00
2013-8-26,88.5,77.3,70.3,73.8,70.0,67.4,95,79,56,30.16,30.04,9,1,11,0.00
2013-8-27,87.8,76.3,67.6,71.2,67.3,61.8,95,75,51,30.07,29.97,14,2,14,0.00
2013-8-28,89.3,76.5,66.8,73.2,68.0,64.3,96,77,51,30.03,29.96,13,2,14,0.00
2013-8-29,92.0,78.7,68.7,77.1,70.4,67.0,95,77,52,30.02,29.92,9,1,9,0.00
2013-8-30,92.3,80.4,72.3,75.7,71.1,66.5,96,75,49,29.94,29.81,15,2,15,0.00
2013-8-31,93.0,80.5,71.5,76.6,70.7,65.3,93,74,49,29.84,29.72,16,2,17,0.00
2013-9-1,86.3,75.8,69.4,72.0,68.9,63.0,90,80,60,29.86,29.72,20,2,22,0.02
2013-9-2,82.9,73.1,67.0,68.5,63.2,57.1,92,72,49,29.95,29.83,12,3,15,0.00
2013-9-3,85.5,70.3,57.8,62.7,58.8,55.1,96,70,43,30.04,29.94,8,1,9,0.00
2013-9-4,86.0,70.6,57.3,64.5,58.9,54.1,93,69,43,30.12,30.01,8,1,9,0.00
2013-9-5,85.2,70.6,58.6,63.8,59.8,55.8,95,71,44,30.16,30.06,10,1,10,0.00
2013-9-6,85.2,71.3,61.4,65.2,60.7,55.3,92,71,41,30.11,29.97,10,1,10,0.00
2013-9-7,90.3,74.5,62.6,72.1,64.7,59.4,95,73,48,30.01,29.88,10,1,10,0.00
2013-9-8,89.3,75.8,66.7,74.9,68.0,63.9,92,77,54,29.92,29.83,9,0,9,0.00
2013-9-9,91.3,78.7,68.9,72.2,66.7,59.9,95,69,41,29.95,29.86,15,1,17,0.00
2013-9-10,90.4,77.1,67.0,69.7,64.6,58.6,90,68,39,30.06,29.93,14,2,15,0.00
2013-9-11,89.8,78.9,66.9,71.9,66.4,63.0,90,67,48,30.09,29.99,9,1,10,0.00
2013-9-12,83.7,75.2,68.3,69.1,66.3,63.6,93,75,56,30.03,29.94,11,2,17,0.00
2013-9-13,73.2,67.2,61.5,63.7,51.1,46.1,82,57,44,30.07,29.98,16,4,19,0.00
2013-9-16,73.3,66.5,63.1,68.5,63.3,60.6,94,90,82,30.15,30.07,11,2,12,0.12
2013-9-17,78.2,68.3,61.9,68.6,63.1,60.4,96,84,63,30.13,29.97,13,3,13,1.20
2013-9-18,76.5,71.5,67.2,72.6,66.7,63.5,92,85,68,29.99,29.88,14,3,15,0.18
2013-9-19,84.8,74.6,70.2,72.1,67.1,65.2,91,78,55,29.94,29.81,23,4,24,0.00
2013-9-20,71.2,63.6,55.0,66.3,59.5,51.1,97,87,68,29.93,29.87,28,2,29,1.16
2013-9-21,72.2,58.9,49.7,51.4,48.0,39.3,94,70,43,30.00,29.89,17,2,17,0.00
2013-9-22,74.3,58.5,44.7,55.0,48.7,43.0,96,73,45,29.98,29.86,12,1,14,0.00
2013-9-23,75.0,61.3,49.9,57.6,52.1,47.1,93,73,50,29.92,29.79,18,4,19,0.00
2013-9-24,72.4,64.2,57.3,60.6,56.1,52.6,90,76,55,29.87,29.77,16,3,16,0.00
2013-9-25,76.7,63.8,53.6,62.9,57.0,51.9,96,80,55,29.84,29.78,11,1,11,0.00
2013-9-26,79.7,66.8,56.8,64.6,59.0,54.7,95,78,56,29.94,29.82,15,3,15,0.00
2013-9-27,80.4,70.2,62.9,64.2,61.8,59.1,94,76,51,29.99,29.88,18,5,18,0.00
2013-9-28,70.6,65.7,59.0,66.1,61.8,57.8,96,88,72,30.00,29.86,17,4,17,0.50
2013-9-29,73.4,61.1,54.9,57.8,53.4,48.5,96,78,47,30.04,29.91,13,2,13,0.00
2013-9-30,75.5,64.3,53.9,65.7,60.3,51.6,97,87,67,29.92,29.82,15,2,15,0.00
2013-10-1,81.3,69.6,63.2,68.3,63.9,60.2,98,83,57,29.96,29.86,13,1,14,0.00
2013-10-2,78.0,69.2,63.6,70.0,65.5,61.8,97,89,73,29.99,29.87,15,3,15,0.03
2013-10-3,81.5,71.2,65.3,69.0,65.6,63.8,95,83,62,29.91,29.79,17,4,17,0.00
2013-10-4,81.0,72.3,67.0,70.9,66.1,62.9,95,82,63,29.88,29.80,14,4,17,0.00
2013-10-5,70.8,55.1,41.9,67.4,53.4,40.3,97,94,83,29.97,29.84,23,2,25,1.37
2013-10-6,58.9,49.2,42.8,46.2,41.5,36.2,100,75,57,30.00,29.90,21,4,22,0.01
2013-10-7,69.7,54.1,44.8,51.3,44.7,40.8,92,73,45,30.13,29.99,15,1,15,0.00
2013-10-8,69.1,55.2,43.6,53.8,47.4,42.2,96,77,53,30.15,30.05,16,2,17,0.00
2013-10-9,71.8,59.6,45.6,54.1,48.5,43.3,93,68,44,30.12,30.03,9,2,10,0.00
2013-10-10,72.3,59.7,49.8,56.8,52.3,47.8,96,78,50,30.09,29.92,12,2,14,0.00
2013-10-11,73.3,64.1,56.0,65.0,58.6,54.3,95,83,66,29.94,29.82,22,6,22,0.01
2013-10-12,68.3,60.4,52.8,60.4,54.7,48.1,95,82,58,30.16,29.86,26,3,26,0.30
2013-10-13,68.0,58.4,52.6,50.2,45.0,39.7,82,61,47,30.34,30.16,17,4,18,0.06
2013-10-14,63.4,57.2,52.7,59.0,49.9,41.6,92,77,63,30.25,29.95,19,5,19,0.02
2013-10-15,61.8,56.5,49.6,60.6,53.3,45.4,96,89,73,30.03,29.85,16,4,17,0.34
2013-10-16,54.5,47.9,41.6,45.5,41.1,36.3,91,78,64,30.10,29.99,14,2,14,0.00
2013-10-17,60.1,49.8,43.5,46.5,42.4,36.8,94,77,52,30.04,29.94,17,2,17,0.00
2013-10-18,51.5,45.2,40.0,43.4,40.7,38.0,95,85,67,30.07,29.98,16,2,19,0.10
2013-10-19,55.7,42.5,34.4,39.2,35.6,31.6,95,78,48,30.12,30.01,15,3,16,0.01
2013-10-20,65.5,50.5,39.4,43.6,39.3,33.7,91,69,35,30.02,29.87,18,2,18,0.00
2013-10-21,53.7,45.6,36.8,44.8,38.9,33.9,93,78,51,30.10,29.94,15,2,16,0.00
2013-10-22,63.0,46.8,33.5,44.5,37.9,31.6,95,74,45,30.08,29.90,24,4,24,0.00
2013-10-23,55.9,42.7,33.8,41.0,34.5,28.9,92,74,52,30.18,30.02,11,1,11,0.00
2013-10-24,48.8,41.6,36.1,37.6,30.9,22.7,89,67,41,30.43,30.10,18,3,20,0.00
2013-10-25,52.7,40.5,28.9,30.9,27.5,23.0,92,62,36,30.52,30.22,15,3,16,0.00
2013-10-26,60.1,48.4,37.6,50.6,41.1,30.8,87,76,64,30.22,30.07,17,3,22,0.00
2013-10-27,65.0,46.5,33.9,42.9,35.8,31.0,92,69,38,30.12,29.98,11,1,11,0.00
2013-10-28,64.3,50.6,38.2,54.0,46.2,35.8,97,86,63,30.17,30.03,13,2,13,0.01
2013-10-29,63.8,57.2,51.2,62.6,55.9,48.6,97,95,91,30.15,29.96,19,5,20,1.66
2013-10-30,64.3,61.7,58.5,63.2,60.1,56.9,97,95,90,30.01,29.76,20,5,26,0.72
2013-10-31,63.7,56.7,46.8,60.9,54.6,45.3,97,93,78,29.77,29.40,19,4,22,0.35
2013-11-1,59.0,50.2,43.7,45.2,41.5,36.8,94,74,47,29.97,29.68,21,2,23,0.13
2013-11-2,51.4,43.6,34.9,40.1,36.6,32.7,92,77,56,30.22,29.95,19,3,23,0.00
2013-11-3,53.9,43.7,31.4,40.5,35.3,29.5,96,74,51,30.25,30.05,22,6,23,0.00
2013-11-4,56.5,50.3,46.8,48.4,43.4,38.8,91,77,68,30.17,30.03,20,8,21,0.00
2013-11-5,58.5,53.2,50.1,56.7,51.7,48.1,96,95,91,30.16,29.93,20,8,22,0.58
2013-11-6,57.9,43.2,34.1,56.7,40.2,31.6,100,89,79,30.35,29.87,26,5,27,0.45
2013-11-7,54.6,41.1,29.7,37.6,33.0,28.2,95,76,45,30.45,30.34,16,2,16,0.01
2013-11-8,60.1,45.6,31.2,39.6,34.7,29.4,95,69,37,30.37,30.07,19,5,19,0.00
2013-11-9,60.3,50.0,42.3,42.7,39.5,36.7,88,69,45,30.26,30.08,17,2,17,0.00
2013-11-10,60.9,49.1,39.3,40.7,36.3,31.2,93,64,36,30.39,30.26,14,2,14,0.00
2013-11-11,59.0,48.6,35.6,52.2,42.1,32.4,92,78,63,30.44,30.16,24,3,27,0.00
2013-11-12,35.4,28.2,22.4,32.3,17.3,9.9,89,65,42,30.77,30.44,28,7,29,0.00
2013-11-13,45.9,34.7,17.7,21.3,16.7,10.1,87,51,27,30.73,30.33,14,4,14,0.00
2013-11-14,50.9,40.4,28.1,27.4,20.7,14.1,71,48,26,30.33,30.04,17,5,18,0.00
2013-11-15,52.9,46.4,40.8,46.9,39.1,26.6,90,76,51,30.06,29.85,19,6,20,0.00
2013-11-16,66.5,59.4,49.1,60.7,53.9,46.3,92,82,66,29.86,29.56,32,10,32,0.02
2013-11-17,71.5,62.7,47.8,63.4,43.4,22.3,85,53,26,30.02,29.45,42,11,43,0.00
2013-11-18,53.9,45.0,36.2,36.3,30.0,22.1,81,58,30,30.28,30.01,13,2,13,0.00
2013-11-19,51.6,44.1,35.2,31.6,27.7,22.8,80,54,33,30.28,30.08,22,6,22,0.00
2013-11-20,56.0,46.1,37.8,34.0,29.5,23.5,77,54,35,30.09,29.91,23,10,24,0.04
2013-11-21,51.7,47.5,39.2,48.5,43.1,32.8,96,87,49,30.25,29.99,20,4,22,0.81
2013-11-22,38.9,29.6,24.7,37.0,27.7,23.0,95,93,89,30.57,30.25,22,6,23,0.00
2013-11-23,32.3,27.5,17.5,26.6,18.1,10.2,90,69,49,30.73,30.55,21,7,21,0.01
2013-11-24,28.3,20.5,14.4,12.3,9.0,3.0,79,62,39,30.74,30.42,15,5,15,0.00
2013-11-25,34.9,29.4,24.5,30.2,21.3,11.8,84,72,53,30.42,30.20,14,3,14,0.00
2013-11-26,36.0,31.2,22.1,27.4,23.4,12.5,86,73,59,30.35,30.14,25,6,25,0.00
2013-11-27,30.1,22.0,17.8,13.3,10.4,6.9,76,61,45,30.45,30.34,16,4,16,0.00
2013-11-29,41.9,41.8,41.8,26.4,26.4,26.4,54,54,54,30.50,30.50,5,4,9,0.00
2013-11-30,53.6,53.6,53.6,39.3,39.3,38.8,58,58,58,30.13,30.13,15,13,18,0.00
2013-12-1,45.4,45.3,45.3,42.0,42.0,42.0,88,88,88,30.01,30.01,2,1,7,0.00
2013-12-2,47.8,47.6,47.4,44.1,44.0,43.8,88,88,87,29.68,29.68,4,2,4,0.00
2013-12-3,53.5,53.5,53.5,50.3,50.3,50.3,89,89,89,29.59,29.59,8,2,9,0.02
2013-12-5,24.0,18.5,16.6,18.2,14.5,10.2,91,84,73,30.36,30.15,17,6,19,0.00
2013-12-6,17.6,15.3,10.4,15.0,11.5,4.3,90,85,74,30.63,30.30,19,7,19,0.00
2013-12-7,10.3,7.9,6.7,4.2,2.7,1.7,81,79,75,30.71,30.62,12,4,14,0.00
2013-12-9,22.0,18.1,16.3,17.8,13.8,8.9,91,83,70,30.39,30.28,14,4,14,0.00
2013-12-10,29.8,17.7,5.5,16.8,10.8,2.4,90,75,50,30.47,30.32,15,2,15,0.05
2013-12-11,29.4,22.2,13.9,19.0,13.9,8.0,94,71,50,30.68,30.35,15,3,16,0.01
2013-12-12,37.4,23.6,9.5,19.9,12.8,5.7,92,65,43,30.68,30.32,14,2,14,0.04
2013-12-13,33.7,29.6,24.8,32.1,25.6,15.7,96,85,59,30.32,29.89,18,6,20,0.52
2013-12-14,33.6,28.2,23.3,32.6,26.2,21.0,96,92,86,30.25,29.86,23,5,24,0.08
2013-12-15,42.4,30.5,17.9,33.0,24.6,15.9,93,79,60,30.27,30.10,15,2,16,0.27
2013-12-16,56.2,44.7,34.3,36.2,32.3,28.8,81,62,43,30.13,30.02,16,3,18,0.00
2013-12-17,47.5,35.3,27.7,31.9,28.1,24.3,94,76,46,30.32,30.10,20,2,21,0.01
2013-12-18,58.2,42.1,25.8,37.9,30.5,22.8,90,66,39,30.31,29.94,21,6,21,0.00
2013-12-19,58.2,51.3,42.7,51.3,44.8,35.6,88,78,69,29.94,29.71,22,7,22,0.00
2013-12-20,59.0,40.5,28.4,56.0,38.4,26.8,95,92,79,29.87,29.69,20,4,23,0.01
2013-12-21,33.8,30.7,27.2,32.6,29.3,25.9,96,95,94,29.82,29.52,21,2,23,0.77
2013-12-22,33.6,26.5,20.8,32.6,24.0,18.0,96,90,85,30.38,29.69,18,7,23,0.00
2013-12-23,22.1,18.1,14.5,19.2,14.3,10.9,90,85,73,30.64,30.38,14,3,15,0.00
2013-12-24,30.0,18.2,10.4,21.2,12.4,7.5,90,78,64,30.64,30.33,21,6,21,0.00
2013-12-25,27.7,27.7,27.7,23.5,23.5,23.5,84,84,84,30.35,30.35,2,2,4,0.00
2013-12-26,46.2,36.8,21.8,29.3,25.7,20.3,96,67,47,30.43,30.30,15,3,15,0.01
2013-12-27,32.7,32.6,32.6,28.8,28.8,28.8,86,86,86,30.42,30.42,0,0,0,0.00
2013-12-28,37.5,37.5,37.5,29.7,29.7,29.4,73,73,73,30.22,30.22,5,2,8,0.00
2013-12-30,32.9,24.3,12.8,19.1,12.7,5.5,74,61,46,30.37,30.26,11,2,13,0.00
2013-12-31,51.3,35.3,19.0,24.9,20.5,14.7,85,57,33,30.41,30.18,14,4,18,0.00
2014-1-1,44.4,33.7,18.6,31.0,24.4,15.5,90,70,48,30.18,29.90,23,6,24,0.00
2014-1-2,18.3,11.4,5.5,15.4,6.0,1.8,89,79,62,30.54,30.14,23,6,23,0.00